Theta_e
342 343 344 344 345 345 347 348 350 352 348 346 346 348 348 347 349 349 348 341 339 340 341 341 346 349 345 343 342 342 341 341 338 338 344 345 344 341 345 346 346 347 348
342 343 343 344 343 344 346 351 347 343 343 342 343 342 342 346 345 343 343 346 340 339 341 342 343 347 341 341 340 340 340 339 338 336 340 344 343 344 345 346 346 347 346
342 343 343 344 344 342 344 342 342 340 342 339 339 338 339 343 342 342 342 341 338 337 336 337 339 342 343 340 339 339 340 342 339 337 336 342 344 345 343 344 343 347 346
342 342 345 348 346 340 340 340 340 341 341 339 339 337 338 340 339 339 339 338 337 337 337 338 337 336 337 342 341 341 341 340 336 334 330 330 330 331 333 331 333 336 334
342 343 343 340 339 339 338 339 339 339 338 336 337 336 337 337 339 339 338 337 335 334 335 337 336 336 338 339 338 333 331 330 330 329 328 327 328 328 328 329 329 331 335
336 338 339 338 337 336 337 337 336 336 336 336 335 335 335 336 330 332 335 336 336 335 333 333 333 332 331 333 334 334 333 332 327 328 327 326 327 328 329 328 329 329 327
335 338 339 336 334 335 334 335 334 335 336 335 335 335 332 332 328 328 330 333 334 333 333 333 330 326 326 328 328 328 329 329 329 329 325 324 324 325 326 326 326 326 325
331 333 335 335 334 333 333 331 333 333 333 334 335 328 324 324 322 324 326 328 327 327 326 327 323 322 324 325 325 324 323 324 323 323 325 324 325 326 326 325 323 322 322
329 330 331 333 333 333 331 330 332 333 334 333 328 322 320 321 318 319 321 322 321 319 320 320 319 317 317 316 316 316 316 316 315 318 319 320 320 321 322 323 322 319 318
328 329 332 332 331 331 332 332 332 333 332 328 323 320 319 319 315 315 319 320 318 318 319 318 316 314 312 312 313 311 310 311 313 316 318 321 321 320 321 324 323 318 317
331 331 331 333 332 333 332 332 330 328 329 325 321 320 319 319 316 314 315 321 319 316 314 312 312 311 309 308 309 313 312 312 313 316 317 316 316 317 318 320 321 320 319
331 331 332 332 332 331 328 327 326 326 325 322 319 318 318 318 315 313 313 315 317 314 311 311 312 308 307 308 311 309 310 314 317 314 313 312 313 313 314 316 319 319 320
331 331 332 332 331 327 326 324 322 323 322 322 320 317 316 317 317 312 312 313 312 312 311 312 311 308 308 312 311 311 312 315 313 312 311 311 311 311 314 314 316 317 318
329 330 330 326 324 322 316 318 318 318 320 321 321 318 316 317 316 313 313 311 310 311 311 313 313 312 311 313 314 314 315 315 313 312 310 309 310 310 310 311 310 311 310
329 326 322 320 317 310 308 307 312 313 318 320 320 318 316 313 313 308 307 309 310 306 310 312 312 312 312 312 312 313 313 312 311 310 308 307 308 308 308 309 309 309 307
320 318 316 312 310 308 307 307 307 305 305 303 305 312 309 305 299 297 296 296 298 301 310 311 310 311 312 311 310 311 311 311 310 309 308 307 306 306 307 308 308 308 306
317 316 314 312 311 309 308 309 308 308 303 302 301 301 302 301 295 295 293 295 296 302 311 310 311 311 312 311 310 309 309 310 309 308 306 306 306 306 306 305 304 305 304
317 313 315 313 312 311 310 309 309 309 309 311 304 303 297 295 294 293 294 300 309 309 310 311 311 311 311 310 310 309 309 309 308 307 307 307 306 305 304 302 302 301 302
316 317 316 315 314 312 311 310 309 310 310 310 311 306 301 296 294 292 295 311 311 310 310 310 311 311 311 310 310 309 308 307 306 306 306 306 306 305 302 301 301 300 301
312 315 312 311 310 309 309 310 310 310 311 311 310 310 309 305 307 308 307 309 309 309 310 310 311 311 310 310 310 309 308 307 306 305 305 306 306 306 304 302 300 299 299
311 311 312 310 310 310 310 310 310 310 310 309 310 311 304 312 311 311 311 311 311 311 311 310 310 310 309 309 308 308 307 306 306 305 305 305 305 304 304 303 303 302 302
313 312 312 312 312 312 312 312 311 311 311 311 311 310 300 311 311 311 311 311 312 312 311 311 310 310 309 308 308 308 306 305 305 305 305 305 304 302 301 299 298 298 300
312 311 310 310 310 308 309 310 310 310 310 311 311 311 311 311 312 311 312 312 312 312 311 311 311 310 309 309 309 309 307 306 306 306 305 304 304 302 300 298 298 297 296
313 313 312 311 310 310 309 310 310 304 309 311 312 311 311 312 312 312 312 312 312 312 311 311 311 311 310 309 309 308 308 308 307 306 305 304 303 302 301 300 299 299 297
311 310 310 310 310 309 309 310 311 310 311 312 312 312 313 312 312 313 313 312 312 311 311 311 309 308 309 310 307 306 303 290 299 299 305 304 303 303 302 301 300 299 299
311 311 310 310 310 309 309 309 309 310 310 311 312 313 313 314 314 313 313 312 312 310 309 312 311 308 308 308 308 301 294 290 294 288 299 301 300 302 302 302 301 300 300
Wind_Speed
12 13 12 13 13 12 12 11 8 5 5 3 2 4 5 5 6 7 8 6 7 5 5 7 6 4 3 3 3 3 3 1 1 2 2 1 3 6 3 4 5 3 4
8 9 10 4 5 9 9 6 7 8 6 6 3 4 5 7 6 6 5 4 6 4 3 5 8 3 4 4 4 5 4 2 1 2 3 3 1 6 7 2 2 2 5
6 6 6 7 6 5 5 8 9 5 4 8 4 4 6 6 3 4 5 6 8 7 5 7 6 3 2 4 3 2 1 2 1 3 3 3 3 5 4 3 2 1 2
8 7 8 9 8 8 8 8 6 6 4 8 1 1 3 2 4 6 8 8 8 9 6 6 7 6 4 1 5 5 3 2 1 2 3 4 2 3 2 2 2 2 4
2 6 6 11 13 14 13 8 9 6 1 7 2 2 2 2 1 4 6 8 9 9 7 7 6 8 3 2 3 4 6 3 2 2 2 2 2 2 2 2 3 4 4
2 6 10 13 15 15 15 14 13 15 17 7 4 3 5 1 2 2 1 3 4 4 5 6 9 10 11 6 5 4 4 3 3 2 2 2 2 2 2 2 2 2 2
3 5 8 10 11 11 11 12 12 12 8 8 7 6 4 3 6 5 6 5 5 6 6 6 5 5 10 7 9 10 8 6 4 2 1 2 1 1 2 3 2 3 4
4 5 6 8 4 4 5 3 7 14 12 7 6 4 4 3 7 7 7 5 6 6 6 7 6 6 6 6 5 5 5 3 5 3 1 1 3 3 3 3 3 5 5
6 6 5 5 6 8 10 11 8 9 13 8 6 5 5 4 4 9 8 6 9 9 8 7 7 6 9 9 5 4 3 2 4 6 5 4 4 4 3 1 3 3 3
7 6 6 7 8 9 8 9 2 5 13 10 7 4 5 5 6 10 8 6 9 7 6 6 10 6 6 6 5 2 4 3 5 6 4 4 5 4 5 3 3 2 2
9 7 7 6 6 6 7 3 7 9 10 9 9 4 4 5 6 10 8 6 7 6 4 4 4 9 6 4 3 1 1 3 4 3 3 4 4 5 5 5 3 2 2
10 11 10 8 7 5 7 5 7 8 9 9 10 6 3 4 7 8 11 10 8 6 4 2 3 5 6 5 4 4 6 6 4 4 4 4 5 5 6 6 6 5 3
10 13 13 10 8 10 8 9 8 8 8 8 8 6 5 4 4 9 11 10 8 5 2 3 7 11 10 10 9 8 6 4 3 3 2 2 4 6 6 5 6 6 6
16 14 11 11 9 8 6 5 6 5 6 7 7 7 6 5 4 4 6 5 7 5 5 5 6 9 8 4 4 5 4 4 3 3 3 3 4 5 6 5 6 7 7
13 12 11 7 9 7 10 8 4 3 3 8 6 7 7 5 4 5 6 4 4 4 4 2 2 2 1 1 2 3 3 3 3 3 3 4 5 5 5 5 5 6 6
15 14 12 10 5 8 8 9 16 10 8 9 8 7 2 5 10 10 11 9 8 5 2 2 2 0 1 1 3 3 3 4 3 2 2 3 4 5 5 6 5 6 8
16 15 10 10 7 8 8 8 7 5 8 9 9 9 6 11 11 11 10 9 4 3 2 2 2 2 2 1 2 2 2 2 1 3 4 4 5 5 6 7 7 7 7
17 19 11 8 6 5 2 3 4 5 5 3 3 4 7 11 11 10 9 7 2 1 1 1 2 3 3 2 1 1 2 1 2 3 4 4 4 4 4 6 5 6 7
10 7 6 3 3 3 3 3 3 2 2 2 2 2 5 6 7 6 4 1 2 2 2 3 3 4 3 2 2 1 2 3 3 4 4 4 4 3 4 4 5 6 7
2 6 5 4 4 4 4 4 4 3 3 3 3 3 3 4 3 3 3 3 3 3 3 4 5 5 3 3 3 2 2 3 4 4 4 4 4 4 4 4 4 5 5
6 6 9 4 3 3 3 3 2 4 4 3 2 2 5 3 3 3 3 3 4 4 4 5 5 5 4 4 4 3 3 4 5 5 5 4 4 5 5 5 6 6 7
4 4 3 4 3 3 2 2 3 3 3 3 2 1 6 2 2 3 3 3 4 3 4 6 6 5 5 5 4 4 5 6 5 6 6 5 5 4 5 6 6 6 7
5 5 4 3 3 4 3 3 3 3 2 2 1 1 1 1 2 2 3 3 3 4 3 5 6 5 5 4 5 6 7 7 7 6 6 6 6 6 6 7 7 7 7
3 4 3 3 2 2 2 2 2 2 1 0 1 1 1 2 2 4 3 3 4 4 3 5 6 9 6 7 6 7 8 8 7 7 10 8 8 8 7 8 8 9 9
3 3 2 1 1 1 1 1 1 1 1 1 2 2 3 4 3 4 5 4 3 5 5 6 4 7 10 11 8 9 10 10 10 8 7 10 11 12 10 9 9 9 10
3 3 1 1 1 2 1 2 3 3 3 3 4 4 4 4 5 5 5 5 5 4 4 4 6 8 9 8 10 11 10 12 11 14 10 8 9 10 9 11 13 9 10
Wind_Direction
195 199 199 197 190 183 187 200 203 129 92 84 33 331 312 294 258 229 223 202 212 193 212 245 256 223 211 206 176 196 226 107 314 316 264 54 110 119 154 202 209 224 275
205 211 227 292 230 184 193 181 120 138 141 112 39 348 311 279 250 233 229 225 212 229 288 261 253 230 210 197 184 178 186 157 130 355 318 321 353 143 185 187 8 235 231
227 209 166 196 182 207 109 121 118 124 344 332 35 21 304 300 251 190 148 112 112 114 97 68 33 17 201 199 182 166 233 209 89 79 327 332 321 0 1 28 17 359 14
208 201 169 175 152 120 111 82 66 35 83 230 205 274 291 91 116 140 137 130 116 89 81 72 64 58 356 153 189 164 159 153 179 86 46 314 320 354 346 342 336 15 342
156 125 124 114 121 121 116 126 125 75 316 5 32 195 264 14 292 185 171 145 128 130 138 110 81 53 287 82 133 134 131 134 148 170 168 244 294 326 4 346 332 341 322
141 145 144 141 146 146 142 159 163 158 134 139 238 233 234 202 254 293 211 108 99 97 93 98 109 97 63 66 97 127 145 156 145 151 168 230 279 312 324 319 310 351 318
178 169 163 163 161 155 154 176 170 139 119 145 176 215 243 221 216 173 139 126 117 106 113 108 88 63 97 100 60 53 64 64 73 127 172 221 269 259 311 303 303 292 263
201 184 164 172 152 137 150 191 224 140 138 147 177 160 177 217 212 182 118 108 91 80 90 97 85 79 46 86 108 114 81 79 56 46 49 296 273 292 256 280 292 288 285
212 202 191 179 165 160 160 174 196 154 125 146 149 154 166 173 149 113 106 100 89 78 73 76 84 76 64 52 57 44 32 37 44 64 54 26 6 342 326 302 298 291 299
230 207 203 190 182 172 162 161 174 169 126 131 138 159 173 134 113 108 111 120 104 100 87 79 69 66 55 63 103 80 347 346 13 8 25 54 40 43 71 45 353 349 306
200 188 184 171 161 159 142 138 147 121 121 136 132 141 136 127 114 113 118 119 111 96 78 45 21 11 10 23 113 122 112 38 14 40 59 35 26 26 17 7 12 343 340
183 188 180 168 160 150 151 126 115 119 131 138 125 120 107 100 100 105 94 91 89 88 73 58 9 24 76 114 116 79 89 101 89 58 29 14 7 6 350 340 346 342 319
184 190 183 174 186 151 148 138 124 140 134 141 134 135 140 99 102 88 94 104 106 100 101 78 67 53 63 75 74 84 82 67 48 28 40 31 355 330 332 338 336 336 313
205 190 175 158 145 114 102 106 114 122 128 141 145 147 144 131 125 98 91 88 88 89 73 66 64 69 53 52 69 69 73 69 61 53 36 359 340 350 343 352 333 337 330
163 139 107 95 74 90 70 61 60 54 148 150 155 162 151 151 175 156 140 135 104 75 95 92 92 92 134 61 59 56 53 55 63 52 19 355 341 337 330 338 327 324 319
94 84 81 79 77 77 96 76 47 38 59 79 98 140 80 114 127 109 103 100 102 152 102 97 104 23 275 349 8 10 22 36 45 21 352 334 321 320 319 322 329 325 322
91 74 90 95 78 70 75 108 110 53 66 76 100 127 136 144 126 129 127 124 150 174 141 162 172 243 259 274 340 355 351 7 12 338 329 331 325 326 331 332 333 328 326
71 68 68 53 50 59 48 153 139 142 149 150 100 84 123 139 145 153 155 172 159 80 81 215 223 226 222 234 256 295 329 307 355 321 315 318 319 329 337 328 329 328 329
89 94 95 110 181 175 167 127 111 141 154 157 139 113 152 123 124 135 163 265 241 263 250 219 223 218 224 244 257 336 304 319 320 309 303 302 305 303 309 307 312 313 314
104 129 126 153 164 159 131 142 155 173 176 167 162 169 152 145 188 204 217 221 235 239 241 229 216 220 227 229 234 255 289 314 311 286 286 286 280 271 284 283 288 298 303
151 154 154 140 128 136 160 168 173 187 179 174 200 206 189 189 174 198 217 225 243 233 223 218 210 220 216 212 207 217 241 255 254 264 267 265 270 276 291 292 294 295 293
96 107 112 121 133 137 139 148 145 144 134 138 163 149 174 200 207 219 219 256 257 242 218 207 211 212 214 210 196 208 226 236 240 238 243 248 254 260 270 279 284 288 291
109 111 103 104 118 137 126 120 117 111 114 112 121 154 174 171 235 235 250 255 254 249 222 208 211 223 214 214 209 212 221 228 226 221 228 228 234 239 250 257 265 273 276
90 87 109 132 137 108 97 106 114 101 88 33 18 343 296 264 248 260 262 274 276 287 263 238 228 225 225 218 213 215 223 229 223 228 228 230 233 227 241 253 253 258 269
104 106 109 133 134 81 57 69 121 219 249 265 269 237 235 247 262 263 263 260 243 259 264 244 236 253 256 253 235 226 230 222 228 233 232 237 245 244 240 245 254 264 266
157 155 131 116 160 199 226 245 248 247 257 258 259 269 281 284 273 268 267 272 277 268 270 275 262 250 253 246 247 247 238 236 236 226 224 225 230 236 236 247 253 252 258